CZ-6A DEB, 61839

Orbit data source: Space-Track

CZ-6A DEB, 61839 is space debris in LEO originally from a launch on Tue, 06 Aug 2024 UTC launched from the Taiyaun Space Center, China (TSC). Debris objects in space refer to the collection of defunct objects orbiting the Earth. Examples of debris include non-operational satellites, rocket bodies, and fragments generated from explosions, collisions, or faulty payload assembly.

Loading next visibility...
Identifier
61839, 2024-140ADF
Orbit
LEO
Country
Flag of CNCN / PRC
Related business
Manufacturer
SAST
Mission
Spacecraft
Bus & Motor
Unknown
Mass
Unknown
Launch date (UTC)
2024-08-06 (2 years ago)
Launch vehicle
Unknown
Launch site
Taiyaun Space Center, China (TSC)
Object type
Payload
Rocket body
Debris
Shape & HBR
Unknown shape, 0.1 m
Radar Cross Section
Medium (>0.1 m² and <1 m²)

Expand to show TLE details & history
Last TLE update: 3 days ago

TLE from 3 days ago
0 CZ-6A DEB
1 61839U 24140ADF 26169.23628874  .00003539  00000-0  11707-2 0  9990
2 61839  88.9300 267.2505 0024997  61.2846 299.0861 14.37616955 96649
Epoch: 2026-06-18T05:40Z
TLE epoch observation values (Epoch: 2026-06-18T05:40:15.347Z)
Latitude
-0.00006°
Longitude
-84.29596°
Altitude
760.811 km
Speed
7.478 km/s
True Right ascension
17h 49m 00s
True Declination
0° 00' 00"
Sunlit
Object was in full shadow at epoch
Visualization orbit readout
Latitude
Unknown
Longitude
Unknown
Altitude
Unknown
Speed
Unknown
Apparent Right ascension
Unknown
Apparent Declination
Unknown
Sunlit
N/A
Visualization observer readout
Local Sidereal Time
07:21:34
Azimuth
Unknown
Elevation
Unknown
Doppler factor
Unknown
Orbital elements
Apogee altitude
781.161 km
Perigee altitude
745.458 km
Semi-major axis
7,141.446 km
Eccentricity
0.0025
Inclination
88.93°
RAAN
267.2505°
Arg. of periapsis
61.2846°
True anomaly
298.8354°
Mean anomaly
299.0861°
Eccentric anomaly
298.96079°
Mean motion
3.59637 °/min
Orbital period
100.1 mins
BSTAR
0.0011707
Loading maneuver chart data...
Computing Atmospheric mass density...
Loading historical data...
Loading historical data...
Loading historical data...
Loading historical data...
Loading historical data...
Loading historical data...
Loading historical data...

Documentation

Showing up to 5 results
|